Tracking 19562 objects as of 25-Mar-2019
HD Live streaming from Space Station
objects crossing your sky now

DFH-3 2

Track DFH-3 2 now!
DFH-3 2 is classified as:


NORAD ID: 24798
Int'l Code: 1997-021A
Perigee: 35,757.7 km
Apogee: 35,837.0 km
Inclination: 11.3 °
Period: 1,436.3 minutes
Semi major axis: 42168 km
RCS: 12.5892 m2 (large)
Launch date: May 11, 1997
Source: People's Republic of China (PRC)
Launch site: Xichang Space Center, China (XSC)

24 C-band; 6 television channels and 18 communications channels; Dongfanghong-3 = "East is Red, 3."
aabbcc
Your satellite tracking list
Your tracking list is empty




NASA's NSSDC Master Catalog

Two Line Element Set (TLE):
1 24798U 97021A   19084.04285365  .00000087  00000-0  00000+0 0  9998
2 24798  11.2528  32.5204 0009402  12.6925 173.2404  1.00258833 80107
Source of the keplerian elements: AFSPC